www.pogodaiklimat.ru

Погода и климат >> Архив погоды >> Украина >> Вышгород


ПОГОДА в Вышгороде

  • Прогноз погоды в Вышгороде
  • Монитор погоды в Вышгороде

АРХИВ ПОГОДЫ в Вышгороде

Время (UTC), дата Ветер
(напр.,м/с)
 
Видим.   Явления Облачность Т
(С)
Тd
(С)
f
(%)
Тe
(С)
Тes
(С)
Комфортность P
(гПа)
Po
(гПа)
Тmin
(С)
Tmax
(С)
R
(мм)
R24
(мм)
S
(см)
03 16.09 ЮЗ 5 10 км 8/0
[Ac lent Ci sp]
+13.5 +4.1 53 +12 +12 1012.2 999.3
06 16.09 З 5 20 км 9/0
[Ac und Ci]
+15.5 +6.2 54 +14 +15 1011.7 998.9 +13.3
09 16.09 ЮЗ 5 20 км 9/0
[Ac und Ci sp]
+19.3 +7.1 45 +20 +22 1010.9 998.2
12 16.09 З 6 20 км 8/0
[Ac cast Ci]
+23.4 +1.1 23 +22 +24 комфорт 1009.0 996.5
15 16.09 З 5 20 км 8/0
[Cc]
+22.6 +1.0 24 +22 +22 комфорт 1008.2 995.7
18 16.09 З 4 10 км 8/0
[Cc]
+19.5 +2.5 32 +20 +20 1008.9 996.3 +24.7
21 16.09 СЗ 3 10 км 8/0
[Ac lent Cc]
+16.9 +5.0 45 +17 +17 1009.6 996.9
00 17.09 З 3 10 км 6/0
[Cc]
+14.4 +5.6 55 +14 +14 1009.5 996.6
03 17.09 З 4 10 км 8/0
[Ac und Cc]
+13.2 +4.5 56 +12 +12 1009.4 996.5
06 17.09 З 4 20 км 6/0
[Ac und Cc]
+12.5 +4.4 58 +11 +12 1009.9 997.0 +11.8
09 17.09 З 4 20 км 8/8 1000 м
[Cu med, cong Ci fib]
+17.5 +3.0 38 +17 +18 1008.9 996.2
12 17.09 СЗ 5 20 км 4/4 1000 м
[Cu med, cong]
+18.8 -1.3 26 +19 +21 1007.8 995.1
15 17.09 ЮЗ 4 20 км 4/3 600 м
[Cu med, cong Ci fib]
+18.5 -0.3 28 +18 +19 1006.8 994.1
18 17.09 ЮЗ 1 10 км 4/0
[Ac und]
+13.3 +4.9 57 +14 +14 1006.4 993.5 +20.0
21 17.09 ЮЗ 3 10 км 9/9 600 м
[Sc]
+14.1 +0.8 40 +13 +13 1004.9 992.1
00 18.09 ЮЗ 4 10 км 3/0
[Cc]
+13.0 +4.3 55 +11 +11 1003.5 990.7
06 18.09 З 7 20 км {ливн. осадки} 9/5 600 м
[Cb cap Ci sp]
+10.5 +4.3 65 +7 +7 1003.6 990.6 +9.3
09 18.09 З 5 20 км {ливн. осадки} 9/9 600 м
[Cb cap]
+12.1 +3.4 55 +10 +10 1005.1 992.2
12 18.09 З 5 20 км {ливн. осадки} 6/5 600 м
[Cb calv Ci]
+11.0 +5.1 67 +8 +10 1006.6 993.6
15 18.09 З 4 20 км 9/9 600 м
[Cb calv]
+11.4 +4.6 63 +9 +9 1008.3 995.3
18 18.09 З 6 10 км слаб. ливневой дождь 9/9 600 м
[Cb cap]
+8.8 +5.7 81 +5 +5 1011.5 998.4 +13.2 2
21 18.09 З 6 10 км {ливн. осадки} ясно +9.0 +5.9 81 +5 +5 1013.5 1000.4
00 19.09 З 6 10 км {ливн. осадки} ясно +8.4 +5.8 84 +4 +4 1015.0 1001.8
03 19.09 З 6 10 км 1/1 600 м
[Cu hum]
+7.4 +4.7 83 +3 +3 1015.8 1002.5
06 19.09 ЮЗ 5 20 км 9/8 600 м
[Cb calv Ac cast]
+8.0 +5.3 83 +4 +4 1016.9 1003.7 +7.0 0.4
12 19.09 З 2 20 км в посл. час ливневой дождь 9/8 600 м
[Cb calv Ac cast]
+12.5 +6.4 66 +12 +13 1017.7 1004.7
15 19.09 З 3 20 км 6/3 600 м
[Cu med, cong Ac lent]
+14.1 +3.5 49 +13 +14 1017.3 1004.3
18 19.09 З 3 10 км 4/0
[Ac lent]
+10.4 +4.3 66 +9 +9 1018.9 1005.7 +14.9 0.0
21 19.09 З 4 10 км 9/0
[Ac und]
+9.2 +5.0 75 +6 +6 1019.0 1005.8
00 20.09 З 2 10 км 3/0
[Ac lent]
+8.2 +5.8 85 +6 +6 1018.9 1005.6
03 20.09 ЮЗ 3 10 км 6/0
[Ac und]
+5.7 +4.5 92 +2 +2 1018.7 1005.3
06 20.09 З 3 20 км 9/9 600 м
[Cb cap]
+7.1 +4.6 84 +4 +4 1018.7 1005.4 +5.4
09 20.09 З 3 20 км 9/4 600 м
[Cu med, cong Ac und Ci sp]
+12.8 +5.0 59 +12 +14 1018.0 1005.0
12 20.09 СЗ 4 20 км в посл. час ливневой дождь 9/9 600 м
[Cb cap]
+10.5 +5.7 72 +8 +8 1017.8 1004.7
15 20.09 З 4 20 км слаб. ливневой дождь 9/9 600 м
[Cb cap]
+10.5 +2.3 57 +8 +8 1018.8 1005.6
18 20.09 З 4 10 км {ливн. осадки} 1/0
[Ac lent]
+7.6 +3.4 75 +4 +4 1019.4 1006.1 +14.1 0.3
00 21.09 СЗ 4 10 км 10/10 660 м
[Cb cap]
+6.4 +3.5 82 +3 +3 1020.7 1007.3
06 21.09 СЗ 3 20 км {ливн. осадки} 8/5 600 м
[Cb cap Ci fib]
+5.8 +2.3 78 +3 +3 1023.3 1009.9 +3.9 0.4
12 21.09 З 4 20 км 8/4 1000 м
[Cu med, cong Ac lent Cc]
+14.7 -2.3 31 +14 +16 1020.8 1007.8
18 21.09 З 4 10 км 10/10 660 м
[Cb cap]
+11.1 +5.7 69 +9 +9 1018.2 1005.1 +15.5
00 22.09 З 5 10 км {морось} 10/10 700 м
[Cb cap]
+12.1 +11.0 93 +10 +10 1014.8 1001.8
06 22.09 З 5 20 км в посл. час морось 10/10 660 м
[St]
+12.7 +10.2 85 +10 +10 1015.0 1002.0 +10.5 0.3
12 22.09 СЗ 4 20 км {ливн. осадки} 9/9 600 м
[Cu med, cong]
+18.3 +8.2 52 +18 +19 1014.3 1001.6
18 22.09 З 4 10 км ясно +15.9 +8.0 59 +15 +15 1012.8 1000.0 +21.0 0.3
00 23.09 СВ 7 10 км 9/9 600 м
[Sc]
+8.8 +5.7 81 +5 +5 1016.9 1003.7

 

Местоположение метеостанции Вышгород (Киевская область, Украина): широта 50.58 долгота 30.48 высота над уровнем моря 90 м.

В архиве по умолчанию представлена погода в Вышгороде за последнюю неделю. Архивные данные за месяц целиком и за предыдущие месяцы, начиная с января 2011 года, Вы можете получить, выбрав интересующий диапазон дат из раскрывающегося списка и нажав кнопку "Ввод!".


*Определитесь, кто Вы:
робот инопланетянин человек

Внимание! Время в таблицах - всемирное. Для получения местного времени необходимо прибавить поправку, которая равна 2 ч.

Смотрите также архив погоды в соседних городах и на ближайших метеорологических станциях:

Погода в Киеве (город Киев, Украина) (21 км)
Погода в Борисполе (Киевская область, Украина) (44 км)
Погода в Остере (Черниговская область, Украина) (50 км)
Погода в Барышевке (Киевская область, Украина) (65 км)
Погода в Тетереве (Киевская область, Украина) (65 км)
Погода в Фастове (Киевская область, Украина) (68 км)
Погода в Чернобыле (Киевская область, Украина) (80 км)
Погода в Белой Церкви (Киевская область, Украина) (96 км)
Погода в Яготине (Киевская область, Украина) (102 км)
Погода в Мироновке (Киевская область, Украина) (108 км)

Пояснения к столбцам:

Ветер - указаны скорость ветра в м/с - средняя за 10 мин, порывы в срок и между сроками (в фигурных скобках) и направление, откуда дует ветер: С - северный, СВ - северо-восточный, В - восточный, ЮВ - юго-восточный, Ю - южный, ЮЗ - юго-западный, З - западный, СЗ - северо-западный.
Видимость - горизонтальная дальность видимости в метрах или километрах. При видимости от 1 до 10 км при отсутствии осадков обычно наблюдается дымка, при ухудшении видимости до 1 км и менее - туман. В сухую погоду видимость может ухудшаться дымом, пылью или мглою.
Явления - указаны атмосферные явления, наблюдавшиеся в срок или в последний час перед сроком; фигурными скобками обозначены явления, наблюдавшиеся между сроками (за 1-3 часа до срока); квадратными скобками обозначены град или гололедные отложения с указанием их диаметра в мм.
Облачность - указаны через наклонную черту общая и нижняя облачность в баллах и высота нижней границы облаков в метрах; квадратными скобками обозначены формы облаков: Ci - перистые, Cs - перисто-слоистые, Cc - перисто-кучевые, Ac - высококучевые, As - высокослоистые, Sc - слоисто-кучевые, Ns - слоисто-дождевые, Cu - кучевые, Cb - кучево-дождевые. Подробнее классификацию облаков см. в Атласе облаков (PDF).
T - Температура воздуха - температура, измеренная на высоте 2 м над землей.
Td - Температура точки росы - температура, при понижении до которой содержащийся в воздухе водяной пар достигнет насыщения.
f - Относительная влажность воздуха - влажноcть воздуха, измеренная на высоте 2 м над землей.
Te - Эффективная температура - температура, которую ощущает одетый по сезону человек в тени. Характеристика душности погоды. При расчете учитывается влияние влажности воздуха и скорости ветра на теплоощущения человека.
Tes - Эффективная температура на солнце - температура, которую ощущает человек, с поправкой на солнечный нагрев. Характеристика знойности погоды. Зависит от высоты солнца над горизонтом, облачности и скорости ветра. Ночью, в пасмурную погоду, а также при ветре 12 м/с и более поправка равна нулю.
P - Атмосферное давление - приведенное к уровню моря атмосферное давление.
Po - Атмосферное давление - измеренное на уровне метеостанции атмосферное давление.
Tmin - Минимальная температура - минимум температуры воздуха на высоте 2 м над землей.
Tmax - Максимальная температура - максимум температуры воздуха на высоте 2 м над землей.
R - Количество осадков - Количество выпавших осадков за период времени, мм. При наведении курсора мыши на число - период времени, за который выпало указанное количество осадков.
R24 - Количество осадков - Количество выпавших осадков за 24 часа, мм.
S - Снежный покров - Высота снежного покрова, см. При наведении курсора мыши на число - состояние снежного покрова и степень покрытия местности в баллах.